Location: Devargunta
(16.7631°N, 80.9077°E)
Time: 19:59:03
(UTC+00:00)

Cosmos 783 Rocket - Pass Details

Date: 19 January 2021
Orbit: 757 x 781 km, 74.1° (Epoch: 28 February)

Event Time Altitude Azimuth Distance (km) Brightness Sun altitude
Rises 12:58:15 0° 349° (N) 3,224 7.7 -8.2°
Reaches altitude 10° 13:00:38 10° 351° (N) 2,301 6.9 -8.8°
Maximum altitude 13:05:51 74° 76° (ENE) 801 4.4 -9.9°
Drops below altitude 10° 13:11:05 10° 162° (SSE) 2,313 7.0 -11.1°
Sets 13:13:29 0° 163° (SSE) 3,242 7.8 -11.7°
